Flag for Switzerland Weather past 2 weeks in Onex, Geneva, Switzerland

Now
68 °F

Partly sunny.


Feels Like: 68 °F
Forecast: 51 / 71 °F
Wind: 3 mph from North

Location: Geneva Cointrin Airport

Current Time: Sep 30, 2014 at 4:15:55 PM

Latest Report: Sep 30, 2014 at 3:50 PM


Visibility: N/A

Pressure: 30.30 "Hg

Humidity: 78%

Dew point: 61 °F

Location of OnexLocation

Historic Weather in Onex — Graph

°F

Onex temperature yesterday

Maximum temperature yesterday: 68 °F (at 3:50 PM)
Minimum temperature yesterday: 52 °F (at 3:50 AM)
Average temperature yesterday: 60 °F

Past Weeks' High & Low Weather Summary

 TemperatureHumidityPressure
High77 °F (Sep 15, 4:20 PM)100% (Sep 16, 3:50 AM)30.33 "Hg (Sep 16, 3:50 AM)
Low43 °F (Sep 26, 6:50 AM)49% (Sep 22, 5:20 PM)29.86 "Hg (Sep 17, 2:50 PM)
Average61 °F81%30.11 "Hg
* Reported Sep 15 3:20 PM — Sep 30 3:20 PM, Onex, Weather by CustomWeather, © 2014

Note: Actual official high and low records may vary slightly from our data, if they occured in-between our weather recording intervals... More about our weather records

Advertising

Onex weather history for previous 24 hours

 ConditionsComfort  
Time TempWeatherWind HumidityBarometerVisibility
3:20 PM
Sep 30
66 °FPartly sunny.1 mph78%30.33 "HgN/A
2:50 PM66 °FBroken clouds.2 mph83%30.33 "HgN/A
2:20 PM66 °FBroken clouds.2 mph83%30.33 "HgN/A
1:50 PM66 °FBroken clouds.1 mph78%30.33 "HgN/A
1:20 PM64 °FLight rain. Partly sunny.2 mph83%30.33 "HgN/A
12:50 PM64 °FLight rain. Partly sunny.1 mph83%30.33 "HgN/A
12:20 PM64 °FBroken clouds.2 mph83%30.33 "HgN/A
11:50 AM64 °FPartly sunny.1 mph83%30.33 "HgN/A
11:20 AM63 °FLight rain. Partly sunny.1 mph88%30.33 "HgN/A
10:50 AM63 °FPartly sunny.No wind88%30.33 "HgN/A
10:20 AM63 °FBroken clouds.No wind88%30.33 "HgN/A
9:50 AM63 °FMore clouds than sun.1 mph88%30.33 "HgN/A
9:20 AM61 °FMore clouds than sun.No wind94%30.33 "HgN/A
8:50 AM61 °FMore clouds than sun.1 mph94%30.33 "HgN/A
8:20 AM59 °FPassing clouds.1 mph94%30.33 "HgN/A
7:50 AM59 °FPassing clouds.1 mph94%30.30 "HgN/A
7:20 AM59 °FPassing clouds.1 mph94%30.30 "HgN/A
6:50 AM59 °FPassing clouds.No wind94%30.30 "HgN/A
6:20 AM59 °FPassing clouds.2 mph94%30.30 "HgN/A
5:50 AM59 °FPassing clouds.No wind94%30.30 "HgN/A
5:20 AM59 °FPassing clouds.No wind94%30.30 "HgN/A
4:50 AM59 °FPartly cloudy.No wind100%30.30 "HgN/A
4:20 AM59 °FPartly cloudy.1 mph100%30.30 "HgN/A
3:50 AM59 °FPartly cloudy.3 mph100%30.30 "HgN/A
2:50 AM59 °FPassing clouds.No wind100%30.33 "HgN/A
2:20 AM59 °FPassing clouds.2 mph100%30.33 "HgN/A
1:50 AM59 °FOvercast.No wind100%30.33 "HgN/A
1:20 AM59 °FPartly cloudy.1 mph100%30.33 "HgN/A
12:50 AM61 °FPartly cloudy.1 mph94%30.33 "HgN/A
12:20 AM61 °FPartly cloudy.2 mph94%30.33 "HgN/A
11:50 PM
Sep 29
61 °FPartly cloudy.No wind94%30.33 "HgN/A
11:20 PM61 °FPartly cloudy.2 mph94%30.33 "HgN/A
10:50 PM63 °FPartly cloudy.1 mph88%30.33 "HgN/A
10:20 PM63 °FMostly cloudy.1 mph88%30.33 "HgN/A
9:50 PM63 °FMostly cloudy.3 mph88%30.33 "HgN/A
9:20 PM63 °FOvercast.1 mph88%30.30 "HgN/A
8:50 PM63 °FPassing clouds.1 mph88%30.30 "HgN/A
8:20 PM63 °FPassing clouds.1 mph88%30.30 "HgN/A
7:50 PM64 °FBroken clouds.1 mph83%30.30 "HgN/A
7:20 PM66 °FBroken clouds.1 mph73%30.30 "HgN/A
6:50 PM66 °FPartly sunny.2 mph73%30.30 "HgN/A
6:20 PM66 °FBroken clouds.2 mph73%30.30 "HgN/A
5:50 PM66 °FBroken clouds.1 mph73%30.30 "HgN/A
5:20 PM66 °FBroken clouds.No wind73%30.30 "HgN/A
4:50 PM66 °FPartly sunny.1 mph68%30.30 "HgN/A
4:20 PM66 °FPartly sunny.3 mph73%30.30 "HgN/A
Weather by CustomWeather, © 2014

See weather overviewHow to use our weather pages